SKYSAT-C11

Last updated on Tue Jul 14 2026 00:02:52 GMT+0000 (Coordinated Universal Time)

1 42987U 17068A 26194.38071131 .00019174 00000+0 24539-3 0 9995 2 42987 97.4370 344.3823 0001083 159.1653 200.9648 15.59255142487323
UTC large
Height (km)
Speed (km/s)
/
Latitude / Longitude
Inclination (degrees)
Orbital Period (minutes)
Azimuth
Elevation
Range (km)
Doppler Factor

Next 0 passes for location: London (51.5072 / 0.1276)

No passes found over London.
SKYSAT-C11